Погода в Атланте

США     33°06′52″N   94°10′05″W
темп.,
°C
ветер,
м/с
пор.,
м/с
влажн.,
%
обл.,
%
осадки,
мм/ч
давл.,
гПа
погр.,
м
15 мая, сб
сб1501:00+14юв25815 0.0 1021102
04:00+13ююв279020 0.0 1021146
07:00+14ююв268785 0.0 1022150
10:00+22ю476792 0.0 1021744
13:00+27ю4551100 0.0 10201816
16:00+27ююз4552100 0.0 10181780
19:00+24ююз367099 0.0 1017423
22:00+19юв2587100 0.0 101797
16 мая, вс
вс1601:00+19ююв3128598 0.0 1018391
04:00+16ю28956 0.0 1019240
07:00+16ююв2997100 0.0 1019249
10:00+23ююв4868100 0.0 1019840
13:00+26ю5854100 0.0 10181820
16:00+22ююз3874100 0.4 1016955
19:00+22ююв287982 0.5 1015898
22:00+20ю4138457 0.0 1015862
17 мая, пн
пн1701:00+18ююв31297100 1.2 1015543
04:00+17ююв31298100 0.3 1014666
07:00+18юв31199100 5.0 1014489
10:00+20ю31198100 4.1 1015634
13:00+21юв3999100 16.6 1014637
16:00+26ююв367938 6.0 1012830
19:00+25ю3784100 7.1 1011449
22:00+21ю3119879 7.1 1012394
18 мая, вт
вт1801:00+21юв41199100 19.9 1013709
04:00+19юв51299100 12.5 1013863
07:00+18вюв61497100 15.9 1015711
10:00+19юв41297100 0.6 1015607
13:00+24юв598187 0.7 1014921
16:00+25ююв4887100 1.8 1011672
19:00+23юв5129199 3.5 1010788
22:00+23ююв5139062 0.0 1012941
19 мая, ср
ср1901:00+22юв41196100 0.6 10131039
04:00+21ююв51397100 1.8 10121206
07:00+16в3699100 15.8 1014153
10:00+18ююв4996100 0.2 1016584
13:00+22ююв4768100 0.2 1015468
16:00+18ююз3797100 1.6 1016426
19:00+18в01100100 19.1 101594
22:00+18в41198100 20.9 1015396